| time (UTC) | temp F | wind direction | speed MPH | gust MPH | rain 1hr in | rain 24hr in | rain mn in | humidity % | barometer mb |
| 20260904210118 | 91 | 197 | 0.0 | 5.0 | 0.00 | 0.02 | 0.02 | 68 | 1013.4 |
| 20260904205538 | 91 | 0 | 0.0 | 3.0 | 0.00 | 0.02 | 0.02 | 70 | 1013.4 |
| 20260904205038 | 91 | 0 | 0.0 | 9.0 | 0.00 | 0.02 | 0.02 | 71 | 1013.4 |
| 20260904204557 | 89 | 0 | 0.0 | 10.0 | 0.00 | 0.02 | 0.02 | 72 | 1013.6 |
| 20260904204040 | 89 | 0 | 0.0 | 10.0 | 0.00 | 0.02 | 0.02 | 73 | 1013.7 |
| 20260904203538 | 88 | 0 | 0.0 | 7.0 | 0.00 | 0.02 | 0.02 | 75 | 1013.7 |
| 20260904203053 | 88 | 0 | 0.0 | 7.0 | 0.00 | 0.02 | 0.02 | 75 | 1013.8 |
| 20260904202537 | 87 | 0 | 0.0 | 0.0 | 0.00 | 0.02 | 0.02 | 77 | 1013.9 |
| 20260904202038 | 87 | 0 | 0.0 | 0.0 | 0.00 | 0.02 | 0.02 | 78 | 1014.0 |
| 20260904201602 | 87 | 0 | 0.0 | 5.0 | 0.00 | 0.02 | 0.02 | 78 | 1014.1 |
| 20260904201037 | 86 | 0 | 0.0 | 9.0 | 0.00 | 0.02 | 0.02 | 79 | 1014.1 |
| 20260904200538 | 86 | 0 | 0.0 | 9.0 | 0.00 | 0.02 | 0.02 | 79 | 1013.9 |
| 20260904200059 | 86 | 0 | 0.0 | 3.0 | 0.00 | 0.02 | 0.02 | 81 | 1014.0 |
| 20260904195539 | 86 | 0 | 0.0 | 9.0 | 0.00 | 0.02 | 0.02 | 79 | 1013.9 |
| 20260904195037 | 86 | 0 | 0.0 | 9.0 | 0.00 | 0.02 | 0.02 | 81 | 1013.9 |
| 20260904194608 | 86 | 0 | 0.0 | 7.0 | 0.00 | 0.02 | 0.02 | 79 | 1014.1 |
| 20260904194040 | 86 | 112 | 0.0 | 7.0 | 0.00 | 0.02 | 0.02 | 80 | 1014.1 |
| 20260904193538 | 87 | 0 | 0.0 | 7.0 | 0.00 | 0.02 | 0.02 | 80 | 1014.1 |
| 20260904193115 | 86 | 0 | 0.0 | 1.0 | 0.00 | 0.02 | 0.02 | 80 | 1013.9 |
| 20260904192537 | 86 | 0 | 0.0 | 1.0 | 0.00 | 0.02 | 0.02 | 80 | 1013.8 |
| 20260904192037 | 86 | 0 | 0.0 | 0.0 | 0.00 | 0.02 | 0.02 | 81 | 1014.1 |
| 20260904191557 | 86 | 0 | 0.0 | 0.0 | 0.00 | 0.02 | 0.02 | 82 | 1014.1 |
| 20260904191038 | 86 | 0 | 0.0 | 0.0 | 0.00 | 0.02 | 0.02 | 82 | 1014.0 |
| 20260904190538 | 86 | 0 | 0.0 | 0.0 | 0.00 | 0.02 | 0.02 | 82 | 1014.3 |
| 20260904190059 | 86 | 0 | 0.0 | 0.0 | 0.00 | 0.02 | 0.02 | 82 | 1014.3 |
| 20260904185537 | 86 | 0 | 0.0 | 1.0 | 0.00 | 0.02 | 0.02 | 83 | 1014.4 |
| 20260904185037 | 86 | 0 | 0.0 | 8.0 | 0.00 | 0.02 | 0.02 | 83 | 1014.5 |
| 20260904184607 | 86 | 0 | 0.0 | 8.0 | 0.00 | 0.02 | 0.02 | 84 | 1014.6 |
| 20260904184038 | 85 | 0 | 0.0 | 0.0 | 0.00 | 0.02 | 0.02 | 84 | 1014.6 |
| 20260904183538 | 85 | 0 | 0.0 | 0.0 | 0.00 | 0.02 | 0.02 | 85 | 1014.6 |
| 20260904183053 | 85 | 0 | 0.0 | 0.0 | 0.00 | 0.02 | 0.02 | 83 | 1014.7 |
| 20260904182537 | 86 | 0 | 0.0 | 0.0 | 0.00 | 0.02 | 0.02 | 82 | 1014.8 |
| 20260904182037 | 86 | 0 | 0.0 | 6.0 | 0.00 | 0.02 | 0.02 | 80 | 1014.9 |
| 20260904181609 | 87 | 0 | 0.0 | 6.0 | 0.00 | 0.02 | 0.02 | 79 | 1014.9 |
| 20260904181037 | 87 | 156 | 0.0 | 0.0 | 0.00 | 0.02 | 0.02 | 78 | 1015.0 |
| 20260904180540 | 87 | 0 | 0.0 | 0.0 | 0.00 | 0.02 | 0.02 | 78 | 1015.0 |
| 20260904180116 | 87 | 0 | 0.0 | 0.0 | 0.00 | 0.02 | 0.02 | 77 | 1014.9 |
| 20260904175537 | 88 | 0 | 0.0 | 0.0 | 0.00 | 0.02 | 0.02 | 76 | 1014.8 |
| 20260904175038 | 88 | 0 | 0.0 | 0.0 | 0.00 | 0.02 | 0.02 | 76 | 1014.9 |
| 20260904174609 | 88 | 0 | 0.0 | 0.0 | 0.00 | 0.02 | 0.02 | 76 | 1015.0 |
| 20260904174036 | 88 | 0 | 0.0 | 0.0 | 0.00 | 0.02 | 0.02 | 76 | 1015.0 |
| 20260904173538 | 88 | 0 | 0.0 | 0.0 | 0.00 | 0.02 | 0.02 | 75 | 1015.1 |
| 20260904173102 | 88 | 0 | 0.0 | 0.0 | 0.00 | 0.02 | 0.02 | 77 | 1015.1 |
| 20260904172538 | 88 | 0 | 0.0 | 0.0 | 0.00 | 0.02 | 0.02 | 75 | 1015.0 |
| 20260904172038 | 88 | 0 | 0.0 | 0.0 | 0.00 | 0.02 | 0.02 | 75 | 1015.0 |
| 20260904171603 | 88 | 0 | 0.0 | 0.0 | 0.00 | 0.02 | 0.02 | 74 | 1015.1 |
| 20260904171038 | 89 | 0 | 0.0 | 0.0 | 0.00 | 0.02 | 0.02 | 74 | 1015.5 |
| 20260904170537 | 89 | 0 | 0.0 | 0.0 | 0.00 | 0.02 | 0.02 | 74 | 1015.4 |
| 20260904170059 | 89 | 0 | 0.0 | 0.0 | 0.00 | 0.02 | 0.02 | 74 | 1015.4 |
| 20260904165538 | 89 | 0 | 0.0 | 0.0 | 0.00 | 0.02 | 0.02 | 74 | 1015.5 |
| 20260904165036 | 88 | 0 | 0.0 | 0.0 | 0.00 | 0.02 | 0.02 | 74 | 1015.5 |
| 20260904164555 | 88 | 0 | 0.0 | 1.0 | 0.00 | 0.02 | 0.02 | 72 | 1015.5 |
| 20260904164037 | 88 | 0 | 0.0 | 1.0 | 0.00 | 0.02 | 0.02 | 73 | 1015.4 |
| 20260904163538 | 89 | 0 | 0.0 | 0.0 | 0.00 | 0.02 | 0.02 | 73 | 1015.4 |
| 20260904163110 | 89 | 0 | 0.0 | 0.0 | 0.00 | 0.02 | 0.02 | 70 | 1015.2 |
| 20260904162538 | 90 | 0 | 0.0 | 0.0 | 0.00 | 0.02 | 0.02 | 70 | 1015.3 |
| 20260904162038 | 90 | 0 | 0.0 | 0.0 | 0.00 | 0.02 | 0.02 | 70 | 1015.3 |
| 20260904161558 | 92 | 0 | 0.0 | 6.0 | 0.00 | 0.02 | 0.02 | 69 | 1015.2 |
| 20260904161037 | 91 | 0 | 0.0 | 8.0 | 0.00 | 0.02 | 0.02 | 72 | 1015.1 |
| 20260904160538 | 90 | 0 | 1.0 | 8.0 | 0.00 | 0.02 | 0.02 | 71 | 1015.2 |
| 20260904160059 | 90 | 0 | 0.0 | 0.0 | 0.00 | 0.02 | 0.02 | 73 | 1015.2 |
| 20260904155538 | 90 | 0 | 0.0 | 0.0 | 0.00 | 0.02 | 0.02 | 71 | 1015.3 |
| 20260904155039 | 89 | 0 | 0.0 | 1.0 | 0.00 | 0.02 | 0.02 | 73 | 1015.3 |
| 20260904154557 | 88 | 0 | 0.0 | 1.0 | 0.00 | 0.02 | 0.02 | 77 | 1015.2 |
| 20260904154037 | 88 | 0 | 0.0 | 1.0 | 0.00 | 0.02 | 0.02 | 78 | 1015.2 |
| 20260904153538 | 88 | 0 | 0.0 | 0.0 | 0.00 | 0.02 | 0.02 | 80 | 1015.3 |
| 20260904153114 | 87 | 0 | 0.0 | 5.0 | 0.00 | 0.02 | 0.02 | 82 | 1015.2 |
| 20260904152538 | 88 | 0 | 0.0 | 5.0 | 0.00 | 0.02 | 0.02 | 82 | 1015.2 |
| 20260904152041 | 87 | 0 | 0.0 | 0.0 | 0.00 | 0.02 | 0.02 | 85 | 1015.2 |
| 20260904151601 | 85 | 0 | 0.0 | 0.0 | 0.00 | 0.02 | 0.02 | 87 | 1015.2 |
| 20260904151042 | 85 | 0 | 0.0 | 0.0 | 0.00 | 0.02 | 0.02 | 87 | 1015.1 |
| 20260904150537 | 84 | 0 | 0.0 | 0.0 | 0.00 | 0.02 | 0.02 | 88 | 1015.1 |
| 20260904150057 | 83 | 0 | 0.0 | 0.0 | 0.00 | 0.02 | 0.02 | 89 | 1015.1 |
| 20260904145538 | 83 | 0 | 0.0 | 0.0 | 0.00 | 0.02 | 0.02 | 89 | 1015.1 |
| 20260904145038 | 83 | 0 | 0.0 | 0.0 | 0.00 | 0.02 | 0.02 | 89 | 1015.0 |
| 20260904144559 | 83 | 0 | 0.0 | 0.0 | 0.00 | 0.02 | 0.02 | 90 | 1015.0 |
| 20260904144038 | 82 | 0 | 0.0 | 0.0 | 0.00 | 0.02 | 0.02 | 90 | 1015.0 |
| 20260904143538 | 83 | 0 | 0.0 | 0.0 | 0.00 | 0.02 | 0.02 | 90 | 1015.1 |
| 20260904143103 | 83 | 0 | 0.0 | 0.0 | 0.00 | 0.02 | 0.02 | 90 | 1015.0 |
| 20260904142542 | 82 | 0 | 0.0 | 0.0 | 0.00 | 0.02 | 0.02 | 92 | 1015.0 |
| 20260904142038 | 82 | 0 | 0.0 | 0.0 | 0.00 | 0.02 | 0.02 | 93 | 1014.8 |
| 20260904141559 | 82 | 0 | 0.0 | 0.0 | 0.00 | 0.02 | 0.02 | 93 | 1015.0 |
| 20260904141042 | 81 | 0 | 0.0 | 0.0 | 0.00 | 0.02 | 0.02 | 94 | 1015.0 |
| 20260904140537 | 80 | 0 | 0.0 | 0.0 | 0.00 | 0.02 | 0.02 | 94 | 1014.9 |
| 20260904140101 | 80 | 0 | 0.0 | 0.0 | 0.00 | 0.02 | 0.02 | 95 | 1014.9 |
| 20260904135540 | 80 | 0 | 0.0 | 0.0 | 0.00 | 0.02 | 0.02 | 95 | 1014.8 |
| 20260904135038 | 80 | 0 | 0.0 | 0.0 | 0.00 | 0.02 | 0.02 | 95 | 1014.7 |
| 20260904134603 | 80 | 0 | 0.0 | 0.0 | 0.00 | 0.02 | 0.02 | 95 | 1014.7 |
| 20260904134041 | 80 | 0 | 0.0 | 0.0 | 0.00 | 0.02 | 0.02 | 95 | 1014.6 |
| 20260904133537 | 79 | 0 | 0.0 | 0.0 | 0.00 | 0.02 | 0.02 | 95 | 1014.7 |
| 20260904133111 | 79 | 0 | 0.0 | 0.0 | 0.00 | 0.02 | 0.02 | 95 | 1014.4 |
| 20260904132538 | 79 | 0 | 0.0 | 0.0 | 0.00 | 0.02 | 0.02 | 95 | 1014.3 |
| 20260904132038 | 79 | 0 | 0.0 | 0.0 | 0.00 | 0.02 | 0.02 | 95 | 1014.3 |
| 20260904131600 | 79 | 0 | 0.0 | 0.0 | 0.00 | 0.02 | 0.02 | 95 | 1014.2 |
| 20260904131038 | 79 | 0 | 0.0 | 0.0 | 0.00 | 0.02 | 0.02 | 95 | 1014.3 |
| 20260904130538 | 79 | 0 | 0.0 | 0.0 | 0.00 | 0.02 | 0.02 | 95 | 1014.3 |
| 20260904130105 | 79 | 0 | 0.0 | 0.0 | 0.00 | 0.02 | 0.02 | 95 | 1014.2 |
| 20260904125541 | 78 | 0 | 0.0 | 0.0 | 0.00 | 0.02 | 0.02 | 95 | 1014.3 |
| 20260904125038 | 78 | 0 | 0.0 | 0.0 | 0.00 | 0.02 | 0.02 | 95 | 1014.1 |
| 20260904124606 | 78 | 0 | 0.0 | 0.0 | 0.00 | 0.02 | 0.02 | 95 | 1014.1 |
| 20260904124038 | 78 | 0 | 0.0 | 0.0 | 0.00 | 0.02 | 0.02 | 95 | 1014.0 |
| 20260904123537 | 78 | 0 | 0.0 | 0.0 | 0.00 | 0.02 | 0.02 | 95 | 1013.9 |
| 20260904123115 | 78 | 0 | 0.0 | 0.0 | 0.00 | 0.02 | 0.02 | 95 | 1013.9 |
| 20260904122537 | 78 | 0 | 0.0 | 0.0 | 0.00 | 0.02 | 0.02 | 95 | 1013.9 |
| 20260904122041 | 78 | 0 | 0.0 | 0.0 | 0.00 | 0.02 | 0.02 | 95 | 1013.9 |
| 20260904121603 | 78 | 0 | 0.0 | 0.0 | 0.00 | 0.02 | 0.02 | 95 | 1013.8 |
| 20260904121040 | 78 | 0 | 0.0 | 0.0 | 0.00 | 0.02 | 0.02 | 95 | 1013.8 |
| 20260904120538 | 78 | 0 | 0.0 | 0.0 | 0.00 | 0.02 | 0.02 | 95 | 1013.8 |
| 20260904120106 | 78 | 0 | 0.0 | 0.0 | 0.00 | 0.02 | 0.02 | 95 | 1013.7 |
| 20260904115538 | 78 | 0 | 0.0 | 0.0 | 0.00 | 0.03 | 0.02 | 95 | 1013.5 |
| 20260904115039 | 78 | 0 | 0.0 | 0.0 | 0.00 | 0.03 | 0.02 | 95 | 1013.4 |
| 20260904114558 | 78 | 0 | 0.0 | 0.0 | 0.00 | 0.03 | 0.02 | 95 | 1013.5 |
| 20260904114038 | 78 | 0 | 0.0 | 0.0 | 0.00 | 0.03 | 0.02 | 95 | 1013.4 |
| 20260904113537 | 78 | 0 | 0.0 | 0.0 | 0.00 | 0.03 | 0.02 | 95 | 1013.3 |
| 20260904113104 | 78 | 0 | 0.0 | 0.0 | 0.00 | 0.03 | 0.02 | 95 | 1013.3 |
| 20260904112539 | 78 | 0 | 0.0 | 0.0 | 0.00 | 0.03 | 0.02 | 95 | 1013.4 |
| 20260904112040 | 78 | 0 | 0.0 | 0.0 | 0.00 | 0.03 | 0.02 | 95 | 1013.4 |
| 20260904111557 | 78 | 0 | 0.0 | 0.0 | 0.00 | 0.03 | 0.02 | 95 | 1013.3 |
| 20260904111037 | 78 | 0 | 0.0 | 0.0 | 0.00 | 0.03 | 0.02 | 95 | 1013.4 |
| 20260904110538 | 78 | 0 | 0.0 | 0.0 | 0.00 | 0.03 | 0.02 | 94 | 1013.3 |
| 20260904110109 | 78 | 0 | 0.0 | 0.0 | 0.00 | 0.03 | 0.02 | 94 | 1013.3 |
| 20260904105538 | 78 | 0 | 0.0 | 0.0 | 0.00 | 0.03 | 0.02 | 94 | 1013.5 |
| 20260904105038 | 78 | 0 | 0.0 | 0.0 | 0.00 | 0.03 | 0.02 | 94 | 1013.3 |
| 20260904104603 | 78 | 0 | 0.0 | 0.0 | 0.00 | 0.03 | 0.02 | 94 | 1013.2 |
| 20260904104037 | 78 | 0 | 0.0 | 0.0 | 0.00 | 0.03 | 0.02 | 94 | 1013.2 |
| 20260904103539 | 78 | 0 | 0.0 | 0.0 | 0.00 | 0.03 | 0.02 | 94 | 1013.2 |
| 20260904103101 | 78 | 0 | 0.0 | 0.0 | 0.00 | 0.03 | 0.02 | 94 | 1013.1 |
| 20260904102537 | 78 | 0 | 0.0 | 0.0 | 0.00 | 0.03 | 0.02 | 94 | 1013.0 |
| 20260904102037 | 78 | 0 | 0.0 | 0.0 | 0.00 | 0.03 | 0.02 | 94 | 1013.1 |
| 20260904101605 | 78 | 0 | 0.0 | 0.0 | 0.00 | 0.03 | 0.02 | 94 | 1012.9 |
| 20260904101038 | 78 | 0 | 0.0 | 0.0 | 0.00 | 0.03 | 0.02 | 94 | 1012.9 |
| 20260904100538 | 78 | 0 | 0.0 | 0.0 | 0.00 | 0.03 | 0.02 | 94 | 1013.0 |
| 20260904100100 | 78 | 0 | 0.0 | 0.0 | 0.00 | 0.03 | 0.02 | 94 | 1013.0 |
| 20260904095540 | 78 | 0 | 0.0 | 0.0 | 0.00 | 0.03 | 0.02 | 94 | 1013.1 |
| 20260904095038 | 78 | 0 | 0.0 | 0.0 | 0.00 | 0.03 | 0.02 | 94 | 1012.9 |
| 20260904094601 | 78 | 0 | 0.0 | 0.0 | 0.00 | 0.03 | 0.02 | 94 | 1012.9 |
| 20260904094037 | 78 | 0 | 0.0 | 0.0 | 0.00 | 0.03 | 0.02 | 94 | 1013.0 |
| 20260904093540 | 78 | 0 | 0.0 | 0.0 | 0.00 | 0.03 | 0.02 | 94 | 1013.0 |
| 20260904093114 | 78 | 0 | 0.0 | 0.0 | 0.00 | 0.03 | 0.02 | 94 | 1013.0 |
| 20260904092543 | 78 | 0 | 0.0 | 0.0 | 0.00 | 0.03 | 0.02 | 94 | 1013.0 |
| 20260904092038 | 78 | 0 | 0.0 | 0.0 | 0.00 | 0.03 | 0.02 | 94 | 1012.9 |
| 20260904091553 | 78 | 0 | 0.0 | 0.0 | 0.00 | 0.03 | 0.02 | 94 | 1013.0 |
| 20260904091037 | 78 | 0 | 0.0 | 0.0 | 0.00 | 0.03 | 0.02 | 94 | 1012.9 |
| 20260904090537 | 78 | 0 | 0.0 | 0.0 | 0.00 | 0.03 | 0.02 | 94 | 1012.8 |
| 20260904090104 | 78 | 0 | 0.0 | 0.0 | 0.00 | 0.03 | 0.02 | 94 | 1012.9 |
| 20260904085540 | 78 | 0 | 0.0 | 0.0 | 0.00 | 0.03 | 0.02 | 94 | 1012.9 |
| 20260904085037 | 78 | 0 | 0.0 | 0.0 | 0.00 | 0.03 | 0.02 | 94 | 1012.8 |
| 20260904084556 | 78 | 0 | 0.0 | 0.0 | 0.00 | 0.03 | 0.02 | 94 | 1012.9 |
| 20260904084038 | 78 | 0 | 0.0 | 0.0 | 0.00 | 0.03 | 0.02 | 94 | 1013.0 |
| 20260904083537 | 78 | 0 | 0.0 | 0.0 | 0.00 | 0.03 | 0.02 | 94 | 1012.9 |
| 20260904083057 | 78 | 0 | 0.0 | 0.0 | 0.00 | 0.03 | 0.02 | 94 | 1012.9 |
| 20260904082538 | 78 | 0 | 0.0 | 0.0 | 0.00 | 0.03 | 0.02 | 94 | 1012.9 |
| 20260904082038 | 78 | 0 | 0.0 | 0.0 | 0.00 | 0.03 | 0.02 | 94 | 1012.8 |
| 20260904081558 | 78 | 0 | 0.0 | 0.0 | 0.00 | 0.03 | 0.02 | 94 | 1012.7 |
| 20260904081040 | 78 | 0 | 0.0 | 0.0 | 0.00 | 0.03 | 0.02 | 94 | 1012.9 |
| 20260904080538 | 78 | 0 | 0.0 | 0.0 | 0.00 | 0.03 | 0.02 | 94 | 1012.9 |
| 20260904075539 | 78 | 0 | 0.0 | 0.0 | 0.00 | 0.03 | 0.02 | 94 | 1013.0 |
| 20260904075042 | 78 | 0 | 0.0 | 0.0 | 0.00 | 0.03 | 0.02 | 94 | 1013.1 |
| 20260904074555 | 78 | 0 | 0.0 | 0.0 | 0.01 | 0.03 | 0.02 | 94 | 1013.1 |
| 20260904074038 | 78 | 0 | 0.0 | 0.0 | 0.01 | 0.03 | 0.02 | 93 | 1013.0 |
| 20260904073538 | 78 | 0 | 0.0 | 0.0 | 0.01 | 0.03 | 0.02 | 94 | 1013.1 |
| 20260904073105 | 78 | 0 | 0.0 | 0.0 | 0.01 | 0.03 | 0.02 | 94 | 1013.2 |
| 20260904072537 | 78 | 0 | 0.0 | 0.0 | 0.01 | 0.03 | 0.02 | 93 | 1013.2 |
| 20260904072037 | 78 | 0 | 0.0 | 0.0 | 0.01 | 0.03 | 0.02 | 93 | 1013.3 |
| 20260904071557 | 79 | 0 | 0.0 | 0.0 | 0.01 | 0.03 | 0.02 | 93 | 1013.4 |
| 20260904071038 | 78 | 0 | 0.0 | 0.0 | 0.01 | 0.03 | 0.02 | 93 | 1013.4 |
| 20260904070559 | 78 | 0 | 0.0 | 0.0 | 0.01 | 0.03 | 0.02 | 93 | 1013.3 |
| 20260904070059 | 78 | 0 | 0.0 | 0.0 | 0.01 | 0.03 | 0.02 | 93 | 1013.3 |
| 20260904065539 | 78 | 0 | 0.0 | 0.0 | 0.01 | 0.03 | 0.02 | 93 | 1013.4 |
| 20260904065039 | 78 | 0 | 0.0 | 0.0 | 0.02 | 0.03 | 0.02 | 93 | 1013.3 |
| 20260904064601 | 78 | 0 | 0.0 | 0.0 | 0.01 | 0.02 | 0.01 | 93 | 1013.4 |
| 20260904064040 | 78 | 0 | 0.0 | 0.0 | 0.01 | 0.02 | 0.01 | 93 | 1013.5 |
| 20260904063540 | 78 | 0 | 0.0 | 0.0 | 0.01 | 0.02 | 0.01 | 93 | 1013.5 |
| 20260904063059 | 78 | 0 | 0.0 | 0.0 | 0.01 | 0.02 | 0.01 | 93 | 1013.5 |
| 20260904062537 | 78 | 0 | 0.0 | 0.0 | 0.01 | 0.02 | 0.01 | 92 | 1013.5 |
| 20260904062037 | 78 | 0 | 0.0 | 0.0 | 0.01 | 0.02 | 0.01 | 92 | 1013.3 |
| 20260904061556 | 78 | 0 | 0.0 | 0.0 | 0.01 | 0.02 | 0.01 | 92 | 1013.4 |
| 20260904061038 | 78 | 0 | 0.0 | 0.0 | 0.01 | 0.02 | 0.01 | 92 | 1013.6 |
| 20260904060538 | 78 | 0 | 0.0 | 0.0 | 0.01 | 0.02 | 0.01 | 92 | 1013.6 |
| 20260904060100 | 78 | 0 | 0.0 | 0.0 | 0.01 | 0.02 | 0.01 | 92 | 1013.7 |
| 20260904055538 | 78 | 0 | 0.0 | 0.0 | 0.01 | 0.02 | 0.01 | 92 | 1013.7 |
| 20260904055038 | 78 | 0 | 0.0 | 0.0 | 0.00 | 0.01 | 0.00 | 92 | 1013.6 |
| 20260904054559 | 78 | 0 | 0.0 | 0.0 | 0.00 | 0.01 | 0.00 | 91 | 1013.5 |
| 20260904054038 | 78 | 0 | 0.0 | 0.0 | 0.00 | 0.01 | 0.00 | 91 | 1013.6 |
| 20260904053539 | 79 | 0 | 0.0 | 0.0 | 0.00 | 0.01 | 0.00 | 91 | 1013.5 |
| 20260904053058 | 79 | 0 | 0.0 | 0.0 | 0.00 | 0.01 | 0.00 | 91 | 1013.4 |
| 20260904052538 | 79 | 0 | 0.0 | 0.0 | 0.00 | 0.01 | 0.00 | 90 | 1013.3 |
| 20260904052038 | 79 | 0 | 0.0 | 0.0 | 0.00 | 0.01 | 0.00 | 90 | 1013.3 |
| 20260904051604 | 79 | 0 | 0.0 | 0.0 | 0.00 | 0.01 | 0.00 | 90 | 1013.3 |
| 20260904051037 | 79 | 0 | 0.0 | 0.0 | 0.00 | 0.01 | 0.00 | 90 | 1013.2 |
| 20260904050540 | 79 | 0 | 0.0 | 0.0 | 0.00 | 0.01 | 0.00 | 90 | 1013.2 |
| 20260904045538 | 79 | 0 | 0.0 | 0.0 | 0.00 | 0.01 | 0.01 | 90 | 1013.3 |
| 20260904045038 | 79 | 0 | 0.0 | 0.0 | 0.00 | 0.01 | 0.01 | 90 | 1013.3 |
| 20260904044554 | 79 | 0 | 0.0 | 0.0 | 0.00 | 0.01 | 0.01 | 90 | 1013.3 |
| 20260904044038 | 79 | 0 | 0.0 | 0.0 | 0.00 | 0.01 | 0.01 | 90 | 1013.4 |
| 20260904043538 | 79 | 0 | 0.0 | 0.0 | 0.00 | 0.01 | 0.01 | 90 | 1013.3 |
| 20260904043059 | 79 | 0 | 0.0 | 0.0 | 0.00 | 0.01 | 0.01 | 90 | 1013.4 |
| 20260904042538 | 79 | 0 | 0.0 | 0.0 | 0.00 | 0.01 | 0.01 | 90 | 1013.3 |
| 20260904042038 | 79 | 0 | 0.0 | 0.0 | 0.00 | 0.01 | 0.01 | 90 | 1013.4 |
| 20260904041557 | 79 | 0 | 0.0 | 0.0 | 0.00 | 0.01 | 0.01 | 90 | 1013.3 |
| 20260904041037 | 79 | 0 | 0.0 | 0.0 | 0.00 | 0.01 | 0.01 | 90 | 1013.2 |
| 20260904040537 | 79 | 0 | 0.0 | 0.0 | 0.00 | 0.01 | 0.01 | 90 | 1013.3 |
| 20260904035538 | 79 | 0 | 0.0 | 0.0 | 0.00 | 0.01 | 0.01 | 89 | 1013.3 |
| 20260904035037 | 79 | 0 | 0.0 | 0.0 | 0.00 | 0.01 | 0.01 | 89 | 1013.3 |
| 20260904034600 | 79 | 0 | 0.0 | 0.0 | 0.00 | 0.01 | 0.01 | 89 | 1013.4 |
| 20260904034037 | 79 | 0 | 0.0 | 0.0 | 0.00 | 0.01 | 0.01 | 89 | 1013.5 |
| 20260904033540 | 79 | 0 | 0.0 | 0.0 | 0.00 | 0.01 | 0.01 | 89 | 1013.5 |
| 20260904033105 | 79 | 0 | 0.0 | 0.0 | 0.00 | 0.01 | 0.01 | 89 | 1013.4 |
| 20260904032541 | 79 | 0 | 0.0 | 0.0 | 0.00 | 0.01 | 0.01 | 89 | 1013.2 |
| 20260904032042 | 79 | 0 | 0.0 | 0.0 | 0.00 | 0.01 | 0.01 | 89 | 1013.5 |
| 20260904031559 | 79 | 0 | 0.0 | 0.0 | 0.00 | 0.01 | 0.01 | 89 | 1013.4 |
| 20260904031038 | 79 | 0 | 0.0 | 0.0 | 0.00 | 0.01 | 0.01 | 88 | 1013.2 |
| 20260904030538 | 79 | 0 | 0.0 | 0.0 | 0.00 | 0.01 | 0.01 | 88 | 1013.3 |
| 20260904025538 | 79 | 0 | 0.0 | 0.0 | 0.00 | 0.24 | 0.01 | 88 | 1013.3 |
| 20260904025038 | 79 | 0 | 0.0 | 0.0 | 0.00 | 0.24 | 0.01 | 88 | 1013.4 |
| 20260904024601 | 79 | 0 | 0.0 | 0.0 | 0.00 | 0.24 | 0.01 | 88 | 1013.3 |
| 20260904024037 | 79 | 0 | 0.0 | 0.0 | 0.00 | 0.24 | 0.01 | 88 | 1013.2 |
| 20260904023538 | 79 | 0 | 0.0 | 0.0 | 0.00 | 0.24 | 0.01 | 88 | 1013.2 |
| 20260904023100 | 79 | 0 | 0.0 | 0.0 | 0.00 | 0.24 | 0.01 | 88 | 1012.9 |
| 20260904022538 | 79 | 0 | 0.0 | 0.0 | 0.00 | 0.24 | 0.01 | 88 | 1012.8 |
| 20260904022038 | 79 | 0 | 0.0 | 0.0 | 0.00 | 0.24 | 0.01 | 88 | 1012.8 |
| 20260904021603 | 79 | 0 | 0.0 | 0.0 | 0.00 | 0.24 | 0.01 | 87 | 1012.8 |
| 20260904021037 | 79 | 0 | 0.0 | 0.0 | 0.00 | 0.24 | 0.01 | 87 | 1012.7 |
| 20260904020540 | 79 | 0 | 0.0 | 0.0 | 0.00 | 0.24 | 0.01 | 87 | 1012.6 |
| 20260904020101 | 79 | 0 | 0.0 | 4.0 | 0.00 | 0.24 | 0.01 | 87 | 1012.5 |
| 20260904015538 | 79 | 0 | 0.0 | 4.0 | 0.00 | 0.24 | 0.01 | 87 | 1012.4 |
| 20260904015037 | 79 | 0 | 0.0 | 4.0 | 0.00 | 0.24 | 0.01 | 87 | 1012.3 |
| 20260904014605 | 79 | 0 | 0.0 | 0.0 | 0.00 | 0.24 | 0.01 | 87 | 1012.2 |
| 20260904014037 | 79 | 0 | 0.0 | 0.0 | 0.00 | 0.24 | 0.01 | 87 | 1012.2 |
| 20260904013538 | 79 | 0 | 0.0 | 0.0 | 0.00 | 0.24 | 0.01 | 87 | 1012.3 |
| 20260904013103 | 79 | 0 | 0.0 | 0.0 | 0.00 | 0.24 | 0.01 | 87 | 1012.3 |
| 20260904012538 | 79 | 0 | 0.0 | 0.0 | 0.00 | 0.24 | 0.01 | 87 | 1012.2 |
| 20260904012038 | 79 | 0 | 0.0 | 0.0 | 0.00 | 0.24 | 0.01 | 87 | 1012.2 |
| 20260904011612 | 79 | 0 | 0.0 | 0.0 | 0.00 | 0.24 | 0.01 | 87 | 1012.1 |
| 20260904011037 | 79 | 0 | 0.0 | 0.0 | 0.00 | 0.24 | 0.01 | 87 | 1012.1 |
| 20260904010538 | 79 | 0 | 0.0 | 0.0 | 0.00 | 0.24 | 0.01 | 87 | 1012.1 |
| 20260904010110 | 79 | 0 | 0.0 | 0.0 | 0.00 | 0.24 | 0.01 | 87 | 1011.9 |
| 20260904005537 | 79 | 0 | 0.0 | 0.0 | 0.00 | 0.24 | 0.01 | 87 | 1012.0 |
| 20260904005037 | 80 | 0 | 0.0 | 0.0 | 0.00 | 0.24 | 0.01 | 86 | 1012.0 |
| 20260904004600 | 80 | 0 | 0.0 | 0.0 | 0.00 | 0.24 | 0.01 | 87 | 1012.0 |
| 20260904004038 | 80 | 0 | 0.0 | 0.0 | 0.00 | 0.24 | 0.01 | 86 | 1012.0 |
| 20260904003537 | 80 | 0 | 0.0 | 0.0 | 0.00 | 0.24 | 0.01 | 86 | 1012.2 |
| 20260904003059 | 80 | 0 | 0.0 | 0.0 | 0.00 | 0.24 | 0.01 | 86 | 1012.1 |
| 20260904002538 | 80 | 0 | 0.0 | 0.0 | 0.00 | 0.24 | 0.01 | 86 | 1012.1 |
| 20260904002038 | 80 | 0 | 0.0 | 0.0 | 0.00 | 0.24 | 0.01 | 86 | 1012.2 |
| 20260904001555 | 80 | 0 | 0.0 | 0.0 | 0.00 | 0.24 | 0.01 | 86 | 1012.3 |
| 20260904001037 | 80 | 0 | 0.0 | 0.0 | 0.00 | 0.24 | 0.01 | 87 | 1012.1 |
| 20260904000535 | 80 | 0 | 0.0 | 0.0 | 0.00 | 0.24 | 0.01 | 86 | 1012.2 |
| 20260903235537 | 80 | 0 | 0.0 | 0.0 | 0.00 | 0.24 | 0.01 | 87 | 1012.2 |
| 20260903235037 | 80 | 0 | 0.0 | 0.0 | 0.00 | 0.24 | 0.01 | 87 | 1012.1 |
| 20260903234553 | 80 | 0 | 0.0 | 0.0 | 0.00 | 0.24 | 0.01 | 87 | 1012.2 |
| 20260903234038 | 80 | 0 | 0.0 | 0.0 | 0.00 | 0.24 | 0.01 | 87 | 1012.1 |
| 20260903233537 | 80 | 0 | 0.0 | 0.0 | 0.00 | 0.24 | 0.01 | 88 | 1012.4 |
| 20260903233101 | 80 | 0 | 0.0 | 0.0 | 0.00 | 0.24 | 0.01 | 87 | 1012.4 |
| 20260903232538 | 80 | 0 | 0.0 | 0.0 | 0.00 | 0.24 | 0.01 | 88 | 1012.3 |
| 20260903232038 | 80 | 0 | 0.0 | 0.0 | 0.00 | 0.24 | 0.01 | 88 | 1012.5 |
| 20260903231555 | 80 | 0 | 0.0 | 0.0 | 0.00 | 0.24 | 0.01 | 88 | 1012.4 |
| 20260903231037 | 80 | 0 | 0.0 | 0.0 | 0.00 | 0.24 | 0.01 | 88 | 1012.3 |
| 20260903230538 | 80 | 0 | 0.0 | 0.0 | 0.00 | 0.24 | 0.01 | 88 | 1012.3 |
| 20260903230057 | 80 | 0 | 0.0 | 0.0 | 0.00 | 0.24 | 0.01 | 88 | 1012.3 |
| 20260903225538 | 80 | 0 | 0.0 | 0.0 | 0.00 | 0.24 | 0.01 | 88 | 1012.3 |
| 20260903225036 | 80 | 0 | 0.0 | 0.0 | 0.00 | 0.24 | 0.01 | 88 | 1012.4 |
| 20260903224551 | 80 | 0 | 0.0 | 0.0 | 0.00 | 0.24 | 0.01 | 87 | 1012.3 |
| 20260903224039 | 81 | 0 | 0.0 | 0.0 | 0.00 | 0.24 | 0.01 | 86 | 1012.4 |
| 20260903223538 | 81 | 0 | 0.0 | 0.0 | 0.00 | 0.24 | 0.01 | 84 | 1012.4 |
| 20260903223058 | 82 | 0 | 0.0 | 0.0 | 0.00 | 0.24 | 0.01 | 84 | 1012.4 |
| 20260903222537 | 82 | 0 | 0.0 | 4.0 | 0.00 | 0.24 | 0.01 | 82 | 1012.6 |
| 20260903222037 | 82 | 0 | 0.0 | 11.0 | 0.00 | 0.24 | 0.01 | 83 | 1012.5 |
| 20260903221559 | 83 | 0 | 1.0 | 11.0 | 0.00 | 0.24 | 0.01 | 81 | 1012.6 |
| 20260903221037 | 83 | 0 | 0.0 | 9.0 | 0.00 | 0.24 | 0.01 | 81 | 1012.4 |
| 20260903220538 | 83 | 0 | 2.0 | 11.0 | 0.00 | 0.24 | 0.01 | 80 | 1012.4 |
| 20260903220104 | 83 | 132 | 3.0 | 11.0 | 0.00 | 0.24 | 0.01 | 81 | 1012.6 |
| 20260903215538 | 84 | 147 | 2.0 | 11.0 | 0.00 | 0.24 | 0.01 | 80 | 1012.7 |
| 20260903215039 | 84 | 0 | 0.0 | 8.0 | 0.00 | 0.24 | 0.01 | 81 | 1012.8 |
| 20260903214557 | 84 | 0 | 0.0 | 15.0 | 0.00 | 0.24 | 0.01 | 80 | 1013.0 |
| 20260903214038 | 84 | 0 | 1.0 | 15.0 | 0.00 | 0.24 | 0.01 | 78 | 1013.0 |
| 20260903213541 | 84 | 0 | 0.0 | 10.0 | 0.00 | 0.24 | 0.01 | 80 | 1013.0 |
| 20260903213104 | 85 | 0 | 0.0 | 10.0 | 0.00 | 0.24 | 0.01 | 80 | 1013.0 |
| 20260903212537 | 85 | 0 | 0.0 | 5.0 | 0.00 | 0.24 | 0.01 | 81 | 1013.2 |
| 20260903212037 | 85 | 0 | 0.0 | 10.0 | 0.00 | 0.24 | 0.01 | 83 | 1013.3 |
| 20260903211600 | 85 | 0 | 0.0 | 10.0 | 0.00 | 0.24 | 0.01 | 83 | 1013.3 |
| 20260903211038 | 85 | 0 | 0.0 | 7.0 | 0.00 | 0.24 | 0.01 | 82 | 1013.2 |
| 20260903210537 | 85 | 0 | 0.0 | 0.0 | 0.00 | 0.24 | 0.01 | 83 | 1013.3 |